Location: Medlow Airstrip Trail, Medlow Bath NSW 2780, Australia
(33.6682°S, 150.3233°E)
Time: 02:17:17
(UTC+10:00)

Transit 2A - Visible Passes

Search period start: 24 September 2019 00:00
Search period end: 04 October 2019 00:00
Orbit: 599 x 960 km, 66.7° (Epoch: 22 September)

Date Brightness Start Highest point End Pass type
(mag) Time Alt. Az. Time Alt. Az. Time Alt. Az.
25 Sep 9.1 22:06:26 10° SSW 22:06:46 12° SSW 22:06:46 12° SSW visible
26 Sep 8.8 21:32:33 10° S 21:33:42 15° S 21:33:42 15° S visible
27 Sep 8.5 20:58:48 10° S 21:00:41 18° S 21:00:41 18° S visible
28 Sep 8.3 20:25:14 10° S 20:27:41 17° SSE 20:27:41 17° SSE visible
28 Sep 8.9 22:07:10 10° SSW 22:08:11 15° SSW 22:08:11 15° SSW visible
29 Sep 8.3 19:52:02 10° SSE 19:54:43 14° SE 19:54:43 14° SE visible
29 Sep 8.4 21:33:01 10° SSW 21:35:14 23° SSW 21:35:14 23° SSW visible
30 Sep 7.8 20:58:59 10° SSW 21:02:19 32° S 21:02:19 32° S visible
01 Oct 7.4 20:25:04 10° S 20:29:27 35° SSE 20:29:27 35° SSE visible
01 Oct 8.9 22:08:38 10° SW 22:09:58 16° SW 22:09:58 16° SW visible
02 Oct 7.5 19:51:17 10° S 19:56:38 29° SE 19:56:38 29° SE visible
02 Oct 8.2 21:34:06 10° SW 21:37:09 27° SW 21:37:09 27° SW visible
03 Oct 7.8 19:17:40 10° S 19:22:21 21° SE 19:23:53 19° ESE visible
03 Oct 7.3 20:59:47 10° SSW 21:04:24 48° SW 21:04:24 48° SW visible
